15min,AgWx,beryljct,423,05FEB2019:00:00:00,34.7,12.86,35.7,35.1,35.2,35.5,34.9,83,89,80,0.571,30.5,32.0,30.0,21.31,20.3,200,9.6,32.2,0.00008,0.00010,.,38.3,25,0,0,36.1,10.53,0.02,0.00
15min,AgWx,beryljct,423,05FEB2019:00:15:00,35.0,12.86,35.7,35.3,35.3,35.5,35.0,80,83,79,0.549,29.7,30.3,29.4,17.67,19.2,208,9.3,27.3,0.00010,0.00012,.,38.3,25,0,0,35.6,10.54,0.01,0.04
15min,AgWx,beryljct,423,05FEB2019:00:30:00,35.1,12.86,35.4,35.5,35.3,35.6,35.1,79,80,77,0.543,29.3,29.6,29.1,15.96,18.5,207,7.0,25.0,0.00011,0.00013,.,38.3,25,0,0,35.5,10.55,0.01,0.04
15min,AgWx,beryljct,423,05FEB2019:00:45:00,35.3,12.85,36.0,35.8,35.6,35.8,35.3,75,78,73,0.521,28.6,29.2,28.0,17.52,20.5,203,8.1,28.5,0.00014,0.00016,.,38.3,25,0,0,35.6,10.56,0.01,0.03
15min,AgWx,beryljct,423,05FEB2019:01:00:00,35.4,12.84,36.5,35.5,35.6,35.9,35.3,74,75,73,0.514,28.0,28.3,27.7,24.33,18.9,202,7.7,27.6,0.00015,0.00017,.,38.3,25,0,0,35.5,10.56,0.00,0.01
15min,AgWx,beryljct,423,05FEB2019:01:15:00,35.5,12.84,35.6,35.6,35.6,36.0,35.3,72,73,70,0.505,27.4,27.7,27.1,15.63,19.0,199,8.0,29.8,0.00016,0.00019,.,38.2,24,0,0,35.8,10.57,0.01,0.02
15min,AgWx,beryljct,423,05FEB2019:01:30:00,35.5,12.84,35.1,35.0,35.5,35.7,35.0,71,73,70,0.502,27.1,27.3,26.8,14.62,18.9,199,7.6,30.4,0.00017,0.00019,.,38.2,25,0,0,35.3,10.57,0.00,0.00
15min,AgWx,beryljct,423,05FEB2019:01:45:00,35.4,12.82,35.4,35.3,35.1,35.3,34.7,73,74,73,0.509,27.4,27.6,27.2,13.57,18.8,201,9.0,27.4,0.00015,0.00017,.,38.1,25,0,0,35.6,10.58,0.00,0.01
15min,AgWx,beryljct,423,05FEB2019:02:00:00,35.4,12.82,36.2,35.6,35.3,35.6,35.1,73,74,70,0.494,27.4,27.7,26.8,23.68,20.5,204,7.4,27.8,0.00016,0.00018,.,38.1,25,0,0,35.7,10.57,0.00,0.01
15min,AgWx,beryljct,423,05FEB2019:02:15:00,35.4,12.81,36.2,35.7,35.6,35.9,35.5,70,71,69,0.489,26.8,27.0,26.4,24.57,24.1,209,7.6,34.8,0.00020,0.00022,.,38.1,25,0,0,35.7,10.57,0.00,0.00
15min,AgWx,beryljct,423,05FEB2019:02:30:00,35.4,12.81,36.1,35.7,35.6,35.8,35.3,69,70,67,0.478,26.4,26.7,26.0,22.73,23.7,206,7.5,31.3,0.00021,0.00023,.,38.1,25,0,0,35.5,10.57,0.00,0.00
15min,AgWx,beryljct,423,05FEB2019:02:45:00,35.4,12.8,35.8,35.3,35.5,35.7,35.3,70,71,68,0.492,26.6,27.0,26.0,25.01,23.6,205,7.0,30.5,0.00020,0.00022,.,38.0,25,0,0,35.5,10.57,0.00,0.00
15min,AgWx,beryljct,423,05FEB2019:03:00:00,35.4,12.8,35.7,35.2,35.1,35.4,34.9,72,73,70,0.500,27.0,27.3,26.6,20.34,20.7,208,8.1,28.7,0.00017,0.00019,.,38.0,25,0,0,35.4,10.57,0.00,0.00
15min,AgWx,beryljct,423,05FEB2019:03:15:00,35.2,12.8,35.7,34.9,34.8,35.2,34.5,73,74,71,0.488,27.0,27.3,26.4,24.44,18.6,216,8.9,26.1,0.00015,0.00017,.,38.0,26,0,0,35.6,10.57,0.00,0.00
15min,AgWx,beryljct,423,05FEB2019:03:30:00,35.2,12.8,35.6,35.1,35.0,35.2,34.7,70,72,68,0.497,26.3,27.0,25.8,18.96,19.9,214,8.5,28.2,0.00018,0.00020,.,37.9,25,0,0,36.0,10.57,0.00,0.00
15min,AgWx,beryljct,423,05FEB2019:03:45:00,35.4,12.79,36.0,35.3,35.2,35.4,34.9,73,75,71,0.503,27.3,27.8,26.9,26.83,22.4,205,7.6,29.6,0.00017,0.00019,.,37.9,25,0,0,36.2,10.57,0.00,0.00
15min,AgWx,beryljct,423,05FEB2019:04:00:00,35.5,12.78,35.7,35.0,35.1,35.4,35.0,71,72,70,0.494,26.8,27.2,26.5,21.79,24.2,203,7.8,34.5,0.00019,0.00021,.,37.9,25,0,0,35.5,10.57,0.01,0.01
15min,AgWx,beryljct,423,05FEB2019:04:15:00,35.5,12.79,35.9,35.3,35.1,35.3,34.9,72,73,71,0.499,27.0,27.2,26.7,23.17,20.0,205,9.4,26.4,0.00016,0.00018,.,37.9,24,0,0,35.7,10.57,0.00,0.00
15min,AgWx,beryljct,423,05FEB2019:04:30:00,35.5,12.78,35.3,34.7,34.9,35.4,34.6,73,74,71,0.484,27.0,27.4,26.3,32.62,24.4,205,11,32.7,0.00017,0.00019,.,37.8,26,0,0,35.9,10.56,0.00,0.00
15min,AgWx,beryljct,423,05FEB2019:04:45:00,35.5,12.79,34.9,34.4,34.5,34.7,34.3,73,75,70,0.502,26.8,27.5,25.9,24.75,23.0,209,7.6,31.7,0.00016,0.00018,.,37.8,25,0,0,35.5,10.57,0.01,0.00
15min,AgWx,beryljct,423,05FEB2019:05:00:00,35.3,12.78,35.7,35.0,34.5,35.0,34.0,74,76,71,0.495,27.0,27.3,26.6,24.53,19.9,208,9.6,29.3,0.00015,0.00017,.,37.8,26,0,0,35.7,10.57,0.00,0.00
15min,AgWx,beryljct,423,05FEB2019:05:15:00,35.4,12.78,35.7,35.2,35.1,35.5,34.9,71,72,69,0.481,26.6,27.0,26.1,20.34,21.2,209,8.9,30.1,0.00018,0.00020,.,37.8,25,0,0,36.2,10.57,0.01,0.00
15min,AgWx,beryljct,423,05FEB2019:05:30:00,35.4,12.77,35.4,34.9,35.1,35.4,34.9,69,71,67,0.487,25.8,26.4,25.4,15.61,19.4,208,9.2,27.2,0.00019,0.00021,.,37.7,25,0,0,35.8,10.57,0.00,0.00
15min,AgWx,beryljct,423,05FEB2019:05:45:00,35.4,12.77,34.9,34.4,34.5,35.0,34.1,74,77,71,0.497,27.1,27.6,26.5,12.71,16.2,200,7.1,22.7,0.00013,0.00015,.,37.7,25,0,0,35.9,10.57,0.00,0.00
15min,AgWx,beryljct,423,05FEB2019:06:00:00,35.4,12.76,35.6,35.2,34.8,35.3,34.4,69,74,66,0.456,25.9,27.0,24.9,21.11,17.6,206,10,25.1,0.00017,0.00019,.,37.7,25,0,0,35.9,10.57,0.00,0.00
15min,AgWx,beryljct,423,05FEB2019:06:15:00,35.3,12.77,34.7,34.6,34.7,35.2,34.5,69,71,66,0.477,25.6,26.1,24.8,14.71,17.5,203,8.0,24.3,0.00017,0.00020,.,37.6,25,0,0,35.4,10.57,0.01,0.00
15min,AgWx,beryljct,423,05FEB2019:06:30:00,35.1,12.76,35.7,35.0,34.8,35.1,34.4,70,72,69,0.478,26.0,26.4,25.7,22.34,21.2,206,9.3,28.8,0.00018,0.00020,.,37.6,25,0,0,35.6,10.57,0.00,0.00
15min,AgWx,beryljct,423,05FEB2019:06:45:00,35.1,12.76,36.0,35.4,35.1,35.4,34.9,68,70,66,0.460,25.6,26.2,25.1,28.7,25.6,204,9.6,35.1,0.00022,0.00024,.,37.6,25,0,0,35.6,10.56,0.00,0.00
15min,AgWx,beryljct,423,05FEB2019:07:00:00,35.1,12.76,35.7,35.3,35.3,35.5,35.1,67,68,65,0.452,25.3,25.7,24.7,22.65,26.3,204,8.1,37.2,0.00074,0.00129,.,37.5,25,0,0,35.4,10.57,0.00,0.00
15min,AgWx,beryljct,423,05FEB2019:07:15:00,35.1,12.75,35.7,35.2,35.1,35.5,34.9,66,68,65,0.453,25.0,25.5,24.7,31.48,24.7,205,8.4,34.6,0.00073,0.00126,.,37.5,25,0,0,35.5,10.57,0.00,0.00
15min,AgWx,beryljct,423,05FEB2019:07:30:00,35.2,12.76,35.7,35.5,35.4,35.5,35.2,66,67,65,0.466,25.0,25.6,24.6,22.97,25.4,211,9.5,35.1,0.00076,0.00131,.,37.5,25,1,0,35.9,10.57,0.00,0.00
15min,AgWx,beryljct,423,05FEB2019:07:45:00,35.3,12.76,35.7,35.3,35.3,35.6,35.1,66,68,65,0.465,25.2,25.6,24.9,23.02,21.9,209,8.7,28.5,0.00071,0.00122,.,37.5,25,5,0,36.0,10.57,0.00,0.00
15min,AgWx,beryljct,423,05FEB2019:08:00:00,35.2,12.77,35.6,35.0,35.1,35.4,34.9,66,68,65,0.455,24.9,25.5,24.5,29.38,24.4,213,8.7,35.3,0.00075,0.00128,.,37.4,25,11,0,35.4,10.56,0.00,0.00
15min,AgWx,beryljct,423,05FEB2019:08:15:00,35.2,12.79,35.1,34.7,34.9,35.2,34.6,67,69,66,0.467,25.2,25.4,24.8,22.78,24.3,218,6.7,31.8,0.00074,0.00126,.,37.4,25,20,0,35.8,10.57,0.01,0.00
15min,AgWx,beryljct,423,05FEB2019:08:30:00,35.3,12.84,35.5,35.1,35.0,35.2,34.6,68,69,67,0.476,25.4,25.9,25.1,17.06,20.6,216,8.4,31.0,0.00074,0.00121,.,37.4,25,46,0,37.0,10.57,0.00,0.00
15min,AgWx,beryljct,423,05FEB2019:08:45:00,35.5,12.87,34.9,34.3,34.8,35.0,34.3,72,75,69,0.501,26.7,27.4,25.8,20.21,19.4,211,9.7,25.7,0.00071,0.00111,.,37.4,25,77,0,37.6,10.57,0.00,0.00
15min,AgWx,beryljct,423,05FEB2019:09:00:00,35.6,12.87,34.5,34.4,34.7,34.9,34.3,72,75,70,0.499,26.5,27.2,25.9,19.03,23.9,208,8.1,35.1,0.00070,0.00114,.,37.4,25,53,0,37.0,10.57,0.00,0.00
15min,AgWx,beryljct,423,05FEB2019:09:15:00,35.7,13.16,35.1,34.7,34.3,34.7,33.9,74,79,70,0.475,26.9,28.0,25.8,32.18,25.4,204,9.1,38.9,0.00081,0.00123,.,37.4,25,151,0,38.3,10.56,0.00,0.00
15min,AgWx,beryljct,423,05FEB2019:09:30:00,35.9,13.35,35.3,34.9,34.6,34.9,34.3,69,72,67,0.458,25.6,26.2,24.9,31.35,28.5,207,7.6,40.5,0.00095,0.00146,.,37.3,25,151,0,38.5,10.57,0.01,0.00
15min,AgWx,beryljct,423,05FEB2019:09:45:00,35.9,13.25,34.9,34.6,34.7,35.0,34.5,68,70,67,0.464,25.4,25.8,24.9,20.67,28.3,204,7.2,39.6,0.00094,0.00147,.,37.3,25,122,0,38.2,10.57,0.00,0.00
15min,AgWx,beryljct,423,05FEB2019:10:00:00,36.1,14.67,35.7,35.2,34.4,35.2,33.8,71,73,68,0.471,25.9,26.5,25.2,27.51,24.6,204,8.8,32.2,0.00112,0.00160,.,37.3,26,295,0,41.2,10.58,0.01,0.00
15min,AgWx,beryljct,423,05FEB2019:10:15:00,36.5,14.72,35.6,35.0,34.9,35.2,34.6,68,70,66,0.456,25.3,26.0,24.5,27.38,23.7,199,8.4,33.7,0.00119,0.00171,.,37.3,27,282,0,42.0,10.59,0.01,0.00
15min,AgWx,beryljct,423,05FEB2019:10:30:00,37.0,14.66,35.9,35.6,35.4,35.7,35.1,65,66,62,0.441,24.7,25.3,24.1,27.42,26.3,198,8.7,35.7,0.00157,0.00218,.,37.2,26,475,0,44.6,10.59,0.00,0.00
15min,AgWx,beryljct,423,05FEB2019:10:45:00,37.4,14.68,35.5,34.7,35.1,35.6,34.6,63,64,62,0.432,23.7,24.4,23.1,39.42,29.0,199,9.8,40.8,0.00137,0.00201,.,37.2,25,314,0,41.3,10.60,0.01,0.00
15min,AgWx,beryljct,423,05FEB2019:11:00:00,37.3,14.69,35.0,34.6,34.9,35.4,34.6,63,64,62,0.432,23.7,24.2,23.3,31.24,28.4,203,10,38.5,0.00139,0.00203,.,37.2,26,332,0,41.2,10.59,0.00,0.00
15min,AgWx,beryljct,423,05FEB2019:11:15:00,37.3,14.7,35.1,34.8,34.9,35.2,34.6,64,65,62,0.438,23.9,24.3,23.2,27.53,26.4,206,8.5,37.2,0.00153,0.00215,.,37.2,25,437,0,42.7,10.59,0.00,0.00
15min,AgWx,beryljct,423,05FEB2019:11:30:00,37.5,14.64,35.3,35.3,35.1,35.4,34.7,62,65,59,0.412,23.4,24.3,22.4,33.06,27.7,208,9.2,36.2,0.00178,0.00245,.,37.1,25,568,0,43.6,10.59,0.00,0.00
15min,AgWx,beryljct,423,05FEB2019:11:45:00,37.7,14.63,35.7,35.5,35.3,35.5,35.2,61,63,59,0.440,23.3,24.1,22.4,21.46,28.1,210,7.6,34.4,0.00185,0.00255,.,37.1,26,607,0,43.9,10.58,0.00,0.00
15min,AgWx,beryljct,423,05FEB2019:12:00:00,38.0,14.61,35.8,35.6,35.6,35.7,35.4,62,64,60,0.433,23.8,24.5,23.2,25.45,25.3,212,7.8,34.0,0.00194,0.00262,.,37.1,25,641,0,44.6,10.59,0.00,0.00
15min,AgWx,beryljct,423,05FEB2019:12:15:00,38.2,14.22,35.7,35.3,35.5,35.7,35.3,62,63,60,0.430,23.7,24.4,23.1,31,26.1,209,7.1,34.7,0.00193,0.00261,.,37.1,25,634,0,44.2,10.59,0.00,0.00
15min,AgWx,beryljct,423,05FEB2019:12:30:00,38.3,14.25,36.2,35.7,35.5,35.8,35.2,63,65,62,0.442,24.2,24.9,23.6,33.74,25.9,207,9.2,34.4,0.00193,0.00258,.,37.1,25,647,0,43.9,10.59,0.00,0.01
15min,AgWx,beryljct,423,05FEB2019:12:45:00,38.4,14.24,36.0,35.6,35.7,35.9,35.6,62,64,61,0.451,24.1,24.6,23.5,26.77,24.9,207,8.2,32.9,0.00195,0.00262,.,37.0,25,638,0,43.9,10.58,0.00,0.00
15min,AgWx,beryljct,423,05FEB2019:13:00:00,38.5,14.24,36.2,35.9,35.8,36.2,35.5,63,65,61,0.435,24.5,25.5,23.6,28.24,22.6,207,9.5,31.6,0.00200,0.00264,.,37.1,25,657,0,44.0,10.58,0.00,0.00
15min,AgWx,beryljct,423,05FEB2019:13:15:00,38.8,14.22,36.5,36.2,36.1,36.4,35.9,60,63,59,0.427,23.7,24.5,23.1,22.54,26.0,204,9.9,36.9,0.00208,0.00280,.,37.0,25,684,0,43.5,10.58,0.00,0.00
15min,AgWx,beryljct,423,05FEB2019:13:30:00,39.0,14.22,36.8,36.7,36.4,36.8,36.0,61,64,59,0.456,24.2,25.9,23.3,24.29,24.4,203,8.3,32.8,0.00205,0.00275,.,37.0,25,654,0,43.0,10.58,0.00,0.00
15min,AgWx,beryljct,423,05FEB2019:13:45:00,39.2,14.22,37.3,37.0,36.6,37.0,36.2,61,63,58,0.464,24.4,25.3,22.9,25.5,23.0,202,10,28.7,0.00191,0.00259,.,37.0,25,574,0,42.4,10.58,0.00,0.00
15min,AgWx,beryljct,423,05FEB2019:14:00:00,39.4,14.33,37.2,37.4,36.8,37.4,36.3,61,64,59,0.479,24.7,26.2,23.4,23.35,21.6,213,12,28.9,0.00178,0.00244,.,37.0,25,515,0,42.0,10.58,0.00,0.00
15min,AgWx,beryljct,423,05FEB2019:14:15:00,39.9,14.18,37.7,37.4,37.3,37.5,37.1,61,63,59,0.460,25.0,26.0,24.3,25.56,25.9,214,10,31.9,0.00199,0.00272,.,37.0,25,606,0,42.1,10.58,0.00,0.00
15min,AgWx,beryljct,423,05FEB2019:14:30:00,40.3,14.18,38.2,37.6,37.5,37.8,37.3,63,66,60,0.501,25.9,27.1,24.8,17.3,22.5,209,8.6,30.3,0.00186,0.00253,.,37.0,25,549,0,42.1,10.58,0.00,0.00
15min,AgWx,beryljct,423,05FEB2019:14:45:00,40.6,14.18,36.8,36.7,37.3,37.8,36.6,63,66,59,0.486,26.0,27.3,24.4,25.17,23.4,207,8.6,31.9,0.00147,0.00211,.,37.0,25,391,0,41.9,10.58,0.00,0.00
15min,AgWx,beryljct,423,05FEB2019:15:00:00,40.0,14.2,35.3,34.9,35.7,36.6,34.7,68,75,63,0.488,26.1,27.5,25.3,22.12,25.9,208,8.9,31.8,0.00114,0.00170,.,37.0,25,287,0,40.7,10.58,0.01,0.00
15min,AgWx,beryljct,423,05FEB2019:15:15:00,39.6,14.28,36.7,36.4,35.9,36.5,34.8,67,73,63,0.463,26.0,27.7,24.4,31.55,23.3,208,9.0,33.8,0.00154,0.00210,.,37.0,25,485,0,39.4,10.58,0.00,0.00
15min,AgWx,beryljct,423,05FEB2019:15:30:00,39.8,14.18,36.4,36.1,36.5,37.0,36.1,63,66,62,0.446,25.3,26.9,24.2,20.54,22.6,205,8.1,31.0,0.00145,0.00207,.,37.0,25,399,0,40.3,10.58,0.00,0.00
15min,AgWx,beryljct,423,05FEB2019:15:45:00,39.7,13.35,35.6,35.3,36.2,37.0,35.3,64,67,62,0.466,25.3,26.8,24.4,27.99,22.4,201,8.9,29.0,0.00116,0.00174,.,37.0,25,278,0,39.6,10.58,0.00,0.00
15min,AgWx,beryljct,423,05FEB2019:16:00:00,38.9,14.24,35.7,34.9,34.3,35.3,33.5,74,81,67,0.509,26.7,28.6,25.2,23.43,20.9,201,9.4,29.4,0.00078,0.00117,.,37.1,25,221,0,38.3,10.59,0.01,0.00
15min,AgWx,beryljct,423,05FEB2019:16:15:00,38.7,14.19,36.4,36.1,35.7,36.2,35.0,67,74,62,0.444,25.7,27.4,24.2,29.64,21.9,205,9.3,31.8,0.00112,0.00165,.,37.1,25,297,0,39.1,10.59,0.00,0.00
15min,AgWx,beryljct,423,05FEB2019:16:30:00,38.9,14.22,36.2,35.7,36.1,36.6,35.7,64,67,61,0.447,25.0,26.3,23.8,26,22.5,204,10,35.4,0.00112,0.00171,.,37.1,25,261,0,39.5,10.58,0.00,0.00
15min,AgWx,beryljct,423,05FEB2019:16:45:00,38.6,13.68,35.9,35.4,35.5,35.8,35.2,63,65,62,0.446,24.3,24.7,23.9,20.19,21.5,205,8.6,29.1,0.00081,0.00137,.,37.2,25,129,0,37.6,10.58,0.00,0.00
15min,AgWx,beryljct,423,05FEB2019:17:00:00,38.0,14.23,36.0,35.6,35.3,35.6,35.0,62,66,60,0.432,23.7,24.8,23.0,24.66,21.0,205,8.7,30.2,0.00084,0.00140,.,37.2,25,143,0,36.7,10.58,0.00,0.00
15min,AgWx,beryljct,423,05FEB2019:17:15:00,37.8,14.24,35.5,35.0,35.3,35.6,35.0,60,62,58,0.412,22.9,23.5,22.1,23.46,23.4,200,8.1,30.3,0.00033,0.00036,.,37.2,25,108,0,36.3,10.59,0.01,0.00
15min,AgWx,beryljct,423,05FEB2019:17:30:00,37.3,13.26,35.2,34.7,34.9,35.2,34.7,61,62,60,0.419,22.8,23.1,22.5,32.66,24.0,206,8.0,32.7,0.00030,0.00032,.,37.2,25,50,0,35.4,10.59,0.00,0.00
15min,AgWx,beryljct,423,05FEB2019:17:45:00,36.7,13.16,34.4,34.0,34.4,34.7,34.0,63,66,61,0.436,23.1,23.9,22.5,21.7,23.1,209,8.5,34.5,0.00026,0.00028,.,37.2,25,14,0,35.4,10.58,0.00,0.00
15min,AgWx,beryljct,423,05FEB2019:18:00:00,36.1,13.11,34.7,34.2,34.1,34.4,33.7,66,68,64,0.440,23.7,24.2,23.5,21.11,21.6,210,9.3,30.2,0.00023,0.00025,.,37.2,25,6,0,35.8,10.59,0.01,0.00
15min,AgWx,beryljct,423,05FEB2019:18:15:00,35.9,13.07,34.5,33.9,34.2,34.4,33.9,65,67,64,0.442,23.7,24.2,23.4,19.66,21.4,203,8.7,29.0,0.00023,0.00025,.,37.3,25,2,0,35.2,10.58,0.00,0.00
15min,AgWx,beryljct,423,05FEB2019:18:30:00,35.8,13.05,33.9,33.4,33.9,34.1,33.4,67,70,65,0.450,24.1,24.6,23.7,19.64,19.3,207,9.1,28.6,0.00020,0.00023,.,37.3,25,0,0,35.5,10.58,0.00,0.00
15min,AgWx,beryljct,423,05FEB2019:18:45:00,35.4,12.89,34.2,33.7,33.6,33.9,33.2,66,70,63,0.422,23.5,24.6,22.8,22.03,21.6,212,8.8,29.2,0.00022,0.00024,.,37.3,25,0,0,35.7,10.59,0.00,0.00
15min,AgWx,beryljct,423,05FEB2019:19:00:00,35.2,13.01,34.1,33.6,33.7,33.8,33.5,65,66,63,0.426,23.0,23.4,22.4,19.8,20.1,207,9.1,31.0,0.00022,0.00025,.,37.3,25,0,0,35.9,10.59,0.00,0.00
15min,AgWx,beryljct,423,05FEB2019:19:15:00,35.1,12.99,33.6,33.0,33.4,33.7,33.0,66,69,64,0.442,23.4,24.1,22.7,22.36,20.0,211,9.7,28.0,0.00021,0.00023,.,37.3,25,0,0,35.7,10.59,0.01,0.00
15min,AgWx,beryljct,423,05FEB2019:19:30:00,34.7,12.99,33.1,32.4,32.6,33.1,32.3,69,71,68,0.430,23.8,24.1,23.4,16.09,17.1,202,6.9,23.6,0.00017,0.00019,.,37.3,25,0,0,35.3,10.59,0.00,0.00
15min,AgWx,beryljct,423,05FEB2019:19:45:00,34.3,12.96,32.8,32.4,32.4,32.6,32.2,68,69,67,0.417,23.1,23.4,22.6,13.55,15.3,211,7.7,22.5,0.00017,0.00019,.,37.3,25,0,0,35.6,10.59,0.00,0.00
15min,AgWx,beryljct,423,05FEB2019:20:00:00,34.0,12.96,32.5,32.2,32.4,32.6,32.1,66,68,65,0.405,22.3,22.9,21.9,14.12,16.1,207,7.5,22.4,0.00019,0.00021,.,37.3,26,0,0,35.7,10.59,0.00,0.00
15min,AgWx,beryljct,423,05FEB2019:20:15:00,33.6,12.96,32.4,31.8,31.7,32.1,31.4,66,68,65,0.393,21.8,22.1,21.3,15.04,12.6,211,8.3,20.4,0.00016,0.00018,.,37.3,25,0,0,35.5,10.59,0.00,0.00
15min,AgWx,beryljct,423,05FEB2019:20:30:00,33.4,12.94,32.2,31.5,31.7,31.9,31.4,66,68,64,0.393,21.7,22.1,21.3,17.67,15.0,212,8.6,20.1,0.00017,0.00020,.,37.2,25,0,0,35.4,10.59,0.01,0.00
15min,AgWx,beryljct,423,05FEB2019:20:45:00,33.3,12.92,31.8,31.2,31.4,31.6,31.2,66,68,65,0.386,21.4,22.1,20.8,15.67,15.2,213,7.8,21.0,0.00017,0.00020,.,37.2,25,0,0,35.8,10.59,0.00,0.00
15min,AgWx,beryljct,423,05FEB2019:21:00:00,33.2,12.93,31.3,30.7,31.0,31.2,30.7,66,67,65,0.387,20.9,21.1,20.6,16.11,14.9,215,7.0,21.9,0.00017,0.00020,.,37.2,26,0,0,35.6,10.59,0.00,0.00
15min,AgWx,beryljct,423,05FEB2019:21:15:00,33.0,12.77,31.0,30.5,30.7,30.9,30.5,65,67,65,0.381,20.5,20.9,20.2,13.53,14.7,210,8.1,19.6,0.00017,0.00020,.,37.2,25,0,0,35.5,10.59,0.00,0.00
15min,AgWx,beryljct,423,05FEB2019:21:30:00,32.8,12.9,30.4,30.0,30.2,30.5,30.0,67,68,66,0.376,20.6,21.0,20.3,8.97,11.0,219,8.8,14.9,0.00013,0.00016,.,37.2,25,0,0,35.5,10.59,0.00,0.00
15min,AgWx,beryljct,423,05FEB2019:21:45:00,32.4,12.89,30.2,29.8,29.8,30.0,29.6,67,68,66,0.375,20.3,20.6,20.0,10.46,10.4,218,11,13.9,0.00013,0.00015,.,37.2,25,0,0,35.4,10.59,0.00,0.00
15min,AgWx,beryljct,423,05FEB2019:22:00:00,32.1,12.88,29.9,29.5,29.7,29.8,29.5,67,68,66,0.374,20.0,20.3,19.8,11.75,11.4,208,6.7,16.0,0.00013,0.00016,.,37.2,26,0,0,35.4,10.59,0.00,0.00
15min,AgWx,beryljct,423,05FEB2019:22:15:00,31.8,12.88,29.4,29.0,29.2,29.5,29.0,69,70,68,0.377,20.2,20.4,20.1,7.651,10.0,202,7.7,14.1,0.00011,0.00014,.,37.2,25,0,0,35.9,10.59,0.00,0.00
15min,AgWx,beryljct,423,05FEB2019:22:30:00,31.5,12.86,29.6,29.1,29.0,29.1,28.9,70,70,69,0.376,20.3,20.5,20.0,8.99,8.9,206,8.8,12.7,0.00010,0.00012,.,37.1,25,0,0,35.8,10.59,0.00,0.00
15min,AgWx,beryljct,423,05FEB2019:22:45:00,31.4,12.84,29.3,28.9,29.0,29.1,28.8,71,72,68,0.387,20.6,21.1,19.9,5.875,8.9,221,12,13.3,0.00009,0.00011,.,37.1,25,0,0,35.8,10.59,0.00,0.00
15min,AgWx,beryljct,423,05FEB2019:23:00:00,31.4,12.86,29.4,28.9,28.9,29.0,28.8,71,73,69,0.373,20.7,21.2,20.1,8.83,6.5,214,14,10.2,0.00006,0.00008,.,37.1,25,0,0,35.6,10.59,0.00,0.00
15min,AgWx,beryljct,423,05FEB2019:23:15:00,31.3,12.82,28.1,27.7,28.4,28.9,27.6,74,77,69,0.395,21.1,21.9,20.1,4.582,8.0,231,19,11.6,0.00007,0.00008,.,37.1,25,0,0,35.4,10.59,0.00,0.00
15min,AgWx,beryljct,423,05FEB2019:23:30:00,30.7,12.83,28.3,27.3,27.4,27.7,27.2,77,78,77,0.388,21.3,21.6,21.0,5.459,5.0,218,17,7.7,0.00001,0.00002,.,37.1,25,0,0,35.7,10.59,0.00,0.00
15min,AgWx,bigpiney,439,05FEB2019:00:00:00,25.5,12.76,22.1,21.7,22.0,22.3,21.6,87,88,87,0.349,18.8,19.3,18.4,11.64,10.6,157,5.2,12.5,0.00003,0.00004,29.2,30.5,8,0,0,0.0,0.06,0.00,0.00
15min,AgWx,bigpiney,439,05FEB2019:00:15:00,25.0,12.74,23.2,22.4,21.9,22.4,21.6,87,88,87,0.359,18.7,19.2,18.3,14.49,12.9,159,5.0,15.5,0.00004,0.00004,29.2,30.5,8,0,0,0.0,0.06,0.00,0.00
15min,AgWx,bigpiney,439,05FEB2019:00:30:00,24.7,12.74,23.4,23.1,22.9,23.2,22.5,86,87,86,0.362,19.4,19.6,19.2,11.75,12.2,162,5.9,14.4,0.00004,0.00005,29.2,30.5,8,0,0,0.0,0.06,0.00,0.00
15min,AgWx,bigpiney,439,05FEB2019:00:45:00,24.7,12.74,22.6,22.4,22.8,23.2,22.3,85,86,84,0.353,19.0,19.5,18.5,9.38,9.8,159,5.0,12.7,0.00004,0.00005,29.2,30.4,8,0,0,0.0,0.06,0.00,0.00
15min,AgWx,bigpiney,439,05FEB2019:01:00:00,24.4,12.73,21.6,21.2,21.5,22.4,21.1,86,87,85,0.340,18.0,18.8,17.7,9.56,9.7,155,4.9,12.2,0.00003,0.00004,29.2,30.5,8,0,0,0.0,0.06,0.00,0.00
15min,AgWx,bigpiney,439,05FEB2019:01:15:00,24.0,12.72,22.5,21.7,21.1,21.7,20.5,87,88,86,0.348,17.9,18.5,17.2,13.09,11.1,160,6.9,13.6,0.00003,0.00004,29.2,30.5,8,0,0,0.0,0.06,0.00,0.00
15min,AgWx,bigpiney,439,05FEB2019:01:30:00,23.8,12.72,22.0,21.6,21.6,21.9,21.4,87,87,86,0.345,18.3,18.7,18.1,11.66,10.7,158,5.1,12.6,0.00003,0.00004,29.2,30.5,8,0,0,0.0,0.06,0.00,0.00
15min,AgWx,bigpiney,439,05FEB2019:01:45:00,23.7,12.71,22.1,21.7,21.6,21.8,21.5,87,87,86,0.344,18.2,18.4,18.0,10.39,11.3,159,4.8,14.0,0.00003,0.00004,29.2,30.4,8,0,0,0.0,0.06,0.00,0.00
15min,AgWx,bigpiney,439,05FEB2019:02:00:00,23.7,12.7,21.8,21.5,21.9,22.3,21.4,86,86,86,0.339,18.3,18.8,17.8,9.45,9.8,153,5.6,11.3,0.00003,0.00004,29.2,30.5,8,0,0,0.0,0.06,0.00,0.00
15min,AgWx,bigpiney,439,05FEB2019:02:15:00,23.7,12.71,22.1,21.5,21.2,21.5,21.1,87,87,86,0.344,17.9,18.3,17.5,11.29,10.9,155,5.1,13.0,0.00003,0.00004,29.2,30.5,8,0,0,0.0,0.06,0.00,0.00
15min,AgWx,bigpiney,439,05FEB2019:02:30:00,23.7,12.7,23.1,22.5,21.9,22.5,21.5,87,87,87,0.358,18.6,19.2,18.2,11.86,9.5,157,6.8,12.3,0.00003,0.00004,29.2,30.5,8,0,0,0.0,0.06,0.00,0.00
15min,AgWx,bigpiney,439,05FEB2019:02:45:00,24.0,12.69,24.2,23.8,23.4,23.8,22.5,86,87,86,0.377,19.9,20.4,19.2,10.5,11.5,166,5.3,14.8,0.00004,0.00005,29.2,30.5,8,0,0,0.0,0.06,0.00,0.00
15min,AgWx,bigpiney,439,05FEB2019:03:00:00,24.5,12.68,24.2,23.8,23.8,24.0,23.8,88,89,87,0.386,20.8,21.0,20.4,13.11,11.7,167,6.2,14.5,0.00003,0.00004,29.2,30.5,8,0,0,0.0,0.06,0.00,0.00
15min,AgWx,bigpiney,439,05FEB2019:03:15:00,24.9,12.67,23.8,23.6,23.7,23.9,23.5,89,90,88,0.386,20.9,21.0,20.8,10.87,12.3,153,10,15.0,0.00003,0.00004,29.2,30.5,8,0,0,0.0,0.06,0.00,0.00
15min,AgWx,bigpiney,439,05FEB2019:03:30:00,25.1,12.68,23.5,22.8,23.1,23.6,22.7,90,90,89,0.374,20.5,20.9,20.1,9.4,9.3,148,7.7,11.8,0.00002,0.00002,29.2,30.5,8,0,0,0.0,0.06,0.00,0.00
15min,AgWx,bigpiney,439,05FEB2019:03:45:00,24.9,12.67,21.4,21.7,22.9,23.4,21.7,86,90,83,0.332,19.3,20.2,17.3,8.11,8.0,163,12,10.5,0.00003,0.00003,29.2,30.5,8,0,0,0.0,0.06,0.00,0.00
15min,AgWx,bigpiney,439,05FEB2019:04:00:00,24.4,12.67,21.9,21.3,20.9,21.6,20.4,88,89,84,0.338,17.8,18.2,17.4,6.971,6.6,155,9.6,8.7,0.00001,0.00002,29.2,30.5,8,0,0,0.0,0.06,0.00,0.00
15min,AgWx,bigpiney,439,05FEB2019:04:15:00,23.7,12.65,21.5,21.1,20.9,21.4,20.3,84,86,82,0.326,16.8,17.7,15.7,5.415,5.6,181,9.7,8.2,0.00002,0.00003,29.2,30.5,8,0,0,0.0,0.06,0.00,0.00
15min,AgWx,bigpiney,439,05FEB2019:04:30:00,23.1,12.65,23.8,22.6,21.0,22.6,19.8,84,86,83,0.348,17.0,18.5,15.6,7.256,5.5,214,16,7.9,0.00002,0.00002,29.2,30.4,8,0,0,0.0,0.06,0.00,0.00
15min,AgWx,bigpiney,439,05FEB2019:04:45:00,22.9,12.64,24.2,23.8,23.1,23.8,22.6,82,84,80,0.350,18.3,18.7,17.9,5.174,6.5,177,7.9,8.4,0.00003,0.00005,29.2,30.5,8,0,0,0.0,0.06,0.00,0.00
15min,AgWx,bigpiney,439,05FEB2019:05:00:00,23.0,12.64,21.0,20.7,23.0,24.0,20.7,80,83,79,0.318,17.8,18.7,16.0,6.511,5.7,149,12,6.8,0.00003,0.00005,29.2,30.5,8,0,0,0.0,0.06,0.00,0.00
15min,AgWx,bigpiney,439,05FEB2019:05:15:00,23.1,12.62,20.2,20.7,21.4,21.8,20.6,84,85,83,0.321,17.4,18.0,16.5,4.801,6.8,141,5.0,8.8,0.00003,0.00003,29.2,30.5,8,0,0,0.0,0.06,0.00,0.00
15min,AgWx,bigpiney,439,05FEB2019:05:30:00,22.6,12.63,16.8,17.6,19.0,20.6,17.6,87,90,84,0.301,15.7,16.5,14.5,5.152,5.6,127,3.2,6.4,0.00001,0.00001,29.2,30.5,8,0,0,0.0,0.06,0.00,0.00
15min,AgWx,bigpiney,439,05FEB2019:05:45:00,21.8,12.61,19.6,18.1,17.5,18.1,17.0,91,93,89,0.317,15.3,16.3,14.5,5.7,5.1,141,7.7,6.2,-0.00001,-0.00000,29.2,30.5,8,0,0,0.0,0.06,0.00,0.00
15min,AgWx,bigpiney,439,05FEB2019:06:00:00,21.0,12.6,19.7,19.0,19.1,19.6,18.3,92,93,92,0.326,17.2,18.0,16.6,6.445,5.2,171,18,8.4,-0.00001,-0.00001,29.2,30.5,8,0,0,0.0,0.06,0.00,0.00
15min,AgWx,bigpiney,439,05FEB2019:06:15:00,20.6,12.6,19.8,18.9,18.4,19.2,17.5,91,93,90,0.320,16.3,17.3,15.1,3.968,5.1,204,8.0,6.2,-0.00001,-0.00001,29.2,30.5,8,0,0,0.0,0.06,0.00,0.00
15min,AgWx,bigpiney,439,05FEB2019:06:30:00,20.1,12.59,19.1,18.8,18.5,19.3,17.0,90,93,88,0.317,16.1,17.5,14.2,5.48,5.3,181,9.5,7.5,-0.00000,-0.00000,29.2,30.5,8,0,0,0.0,0.06,0.00,0.00
15min,AgWx,bigpiney,439,05FEB2019:06:45:00,19.9,12.59,21.7,21.2,20.0,21.2,18.8,88,90,86,0.336,17.0,17.8,16.2,7.278,6.7,174,6.6,8.7,0.00001,0.00002,29.2,30.5,8,0,0,0.0,0.06,0.00,0.00
15min,AgWx,bigpiney,439,05FEB2019:07:00:00,20.2,12.58,21.7,21.2,20.9,21.3,20.2,85,86,84,0.328,17.1,17.7,16.5,6.16,6.8,177,4.7,7.8,0.00002,0.00003,29.2,30.5,8,0,0,0.0,0.06,0.00,0.00
15min,AgWx,bigpiney,439,05FEB2019:07:15:00,20.4,12.59,19.2,19.6,20.3,21.3,19.6,84,86,82,0.300,16.2,17.2,15.1,6.116,6.2,189,3.4,6.9,0.00002,0.00003,29.2,30.5,8,0,0,0.0,0.06,0.00,0.00
15min,AgWx,bigpiney,439,05FEB2019:07:30:00,20.1,12.58,16.9,16.2,17.4,19.6,15.8,84,87,82,0.274,13.3,15.0,11.5,3.464,4.8,174,15,6.5,0.00001,0.00002,29.2,30.5,8,2,0,0.0,0.06,0.00,0.00
15min,AgWx,bigpiney,439,05FEB2019:07:45:00,19.5,12.57,18.2,17.6,17.0,17.6,16.2,89,91,87,0.305,14.2,15.5,13.0,4.998,3.9,156,11,5.2,-0.00003,-0.00000,29.2,30.5,8,6,0,0.0,0.06,0.00,0.00
15min,AgWx,bigpiney,439,05FEB2019:08:00:00,19.1,12.57,19.4,18.6,18.2,18.7,17.6,92,93,91,0.324,16.2,16.9,15.4,6.248,5.3,147,6.5,6.8,-0.00000,0.00002,29.2,30.5,8,13,0,0.0,0.06,0.00,0.00
15min,AgWx,bigpiney,439,05FEB2019:08:15:00,19.1,12.58,19.9,19.4,19.3,19.4,18.7,93,93,93,0.336,17.5,17.7,16.9,3.902,4.9,147,3.8,6.7,0.00005,0.00008,29.1,30.5,8,21,0,0.0,0.06,0.00,0.00